Location: C�mpuri de-Sus
(45.9500°N, 22.5500°E)
Time: 12:04:19
(UTC+00:00)

Daily predictions for brighter satellites

Satellite Brightness Start Highest point End
(mag) Time Altitude Azimuth Time Altitude Azimuth Time Altitude Azimuth
Meteor 1-21 Rocket 4.3 15:46:04 10° N 15:51:58 71° ENE 15:57:52 10° SSE
NOAA 6 4.2 15:50:08 10° SSE 15:55:20 87° WSW 16:00:34 10° NNW
Lacrosse 4 Rocket 2.5 15:52:34 10° N 15:56:16 27° NE 16:00:01 10° ESE
Cosmos 1758 4.5 15:53:06 10° SSW 15:56:56 47° WNW 16:00:47 10° N
Cosmos 1953 2.3 15:56:09 10° S 16:00:11 75° E 16:04:15 10° NNE
ATLAS 3B R/B 3.8 15:54:12 10° WSW 16:00:23 41° NW 16:06:53 10° NNE
Cosmos 389 Rocket 3.4 15:57:59 10° SSW 16:01:18 51° WNW 16:04:41 10° N
H-2A R/B 2.4 15:56:32 10° SE 16:01:44 50° ENE 16:07:00 10° N
Okean O Rocket 2.2 15:59:35 10° SE 16:03:31 35° ENE 16:07:29 10° N
Cosmos 2278 3.9 15:58:25 10° SSW 16:04:06 82° WNW 16:09:51 10° NNE
NOSS 3-1 (A) 4.2 16:02:21 10° SSE 16:06:33 25° ESE 16:11:13 10° ENE
Okean 1 Rocket 4.5 16:04:05 10° SSW 16:08:12 42° WNW 16:12:22 10° N
deb Chang Zheng 4 3.5 16:04:52 10° SSE 16:08:59 58° ENE 16:13:09 10° N
Cosmos 724 4.5 16:03:14 10° NW 16:09:12 80° WSW 16:15:00 10° SSE
ATLAS 5 CENTAUR R/B 2.2 16:07:36 10° WSW 16:11:23 49° NW 16:15:40 10° NNE
SL-8 R/B 3.8 16:08:45 10° WSW 16:13:33 82° NNW 16:18:04 12° ENE
X-37B 0.8 16:13:35 10° W 16:16:26 55° SSW 16:19:08 11° ESE
SL-16 R/B 2.4 16:11:04 10° S 16:16:29 49° ESE 16:21:56 10° NE
Cosmos 2123 Rocket 4.1 16:10:52 10° N 16:17:08 59° ENE 16:23:19 10° SSE
USA 267 3.3 16:10:53 10° SE 16:17:25 87° SW 16:24:00 10° NW
Cosmos 1269 Rocket 4.1 16:12:16 10° NNW 16:17:36 86° WSW 16:22:52 10° SSE
COSMO-SKYMED 1 2.9 16:15:29 10° NNE 16:19:40 45° E 16:23:49 10° S
Okean 1-7 Rocket 3.6 16:16:30 10° N 16:20:52 58° ENE 16:25:15 10° SSE
MOS 1-B 4.4 16:16:21 10° SSE 16:22:09 88° WSW 16:27:59 10° NNW
Cosmos 1300 2.8 16:19:40 10° S 16:23:21 50° E 16:27:03 10° NNE
Cosmos 1892 Rocket 4.1 16:21:33 10° NNW 16:25:58 63° W 16:30:18 10° S
NOSS 2-3 (D) 3.7 16:22:32 10° SSW 16:26:25 50° ESE 16:30:50 10° NE
Okean-O 4.1 16:25:13 14° E 16:26:56 17° ENE 16:29:51 10° NNE
SMAP 4.5 16:23:36 10° S 16:28:01 43° W 16:32:28 10° NNW
Cosmos 2322 Rocket 2.5 16:23:26 10° S 16:28:45 46° ESE 16:34:06 10° NE
NOSS 3-1 (C) 3.2 16:25:17 10° SSW 16:30:26 66° ESE 16:36:31 10° NE
CZ-4 R/B 2.3 16:27:16 10° SE 16:30:43 28° ENE 16:34:15 10° N
Cosmos 371 Rocket 3.2 16:28:20 10° SSW 16:33:11 80° ESE 16:38:06 10° NNE
Cosmos 2219 Rocket 4.1 16:33:45 10° ESE 16:33:54 10° ESE 16:33:54 10° ESE
Cosmos 2251 Rocket 3.9 16:32:15 10° N 16:37:15 42° ENE 16:42:12 10° SE
SJ-11-01 4.3 16:32:51 10° SSE 16:37:28 63° ENE 16:42:09 10° N
Cosmos 1844 4.4 16:32:33 10° NNW 16:37:52 35° NE 16:41:58 15° ESE
Cosmos 2344 4.3 16:29:40 10° NW 16:38:30 63° NE 16:50:45 10° SE
Cosmos 2360 Rocket 2.8 16:33:32 10° SSE 16:38:32 34° ESE 16:43:34 10° NE
NOSS 2-3 (C) 3.4 16:34:57 10° SSW 16:38:56 70° SE 16:43:25 11° NE
SL-08 RB Rocket 4.0 16:36:16 10° SE 16:40:36 45° ENE 16:45:01 10° N
Cosmos 1758 Rocket 4.2 16:39:30 10° N 16:43:23 31° ENE 16:46:52 12° SE
SKYMED 3 4.5 16:39:20 10° NNE 16:43:42 81° ESE 16:48:03 10° S
Cosmos 2333 Rocket 3.4 16:41:37 10° SE 16:45:28 19° E 16:45:28 19° E
ARGOS 3.1 16:40:54 10° SSE 16:46:16 74° ENE 16:51:42 10° N
Cosmos 2228 4.0 16:43:30 10° SE 16:47:04 25° E 16:50:40 10° NNE
Feng Yun 1-1 Rocket 4.3 16:41:52 10° SSE 16:47:21 61° ENE 16:53:01 10° N
NOSS 8 (H) 4.0 16:44:23 10° SSW 16:47:45 78° SE 16:49:21 25° NE
H-2A R/B 2.6 16:43:55 10° SSE 16:48:04 52° ENE 16:52:06 10° N
Cosmos 1626 Rocket 3.4 16:44:31 10° N 16:48:52 78° E 16:53:10 10° SSE
Tiangong 2.2 16:48:13 10° WSW 16:51:12 35° S 16:52:27 25° SE
CZ-4B R/B 3.7 16:46:27 10° S 16:52:05 68° WSW 16:57:45 10° NNW
CZ-4 R/B 4.5 16:51:13 10° SSE 16:55:20 83° WSW 16:59:30 10° NNW
SWARM A 4.2 16:52:17 10° SSE 16:55:30 55° E 16:58:46 10° N
In-Cosmos 22 Rocket 4.1 16:51:51 10° N 16:57:06 57° ENE 17:02:19 10° SSE
Cosmos 2263 Rocket 3.8 16:52:10 10° NW 16:57:11 35° WSW 17:02:11 10° S
Meteor 1-11 4.4 16:52:44 10° NNW 16:58:22 77° W 17:04:00 10° S
Cosmos 220 Rocket 4.0 16:55:56 10° S 17:00:17 60° ESE 17:04:19 12° NNE
Meteor 1-4 Rocket 2.2 16:57:04 10° S 17:00:32 77° ESE 17:03:59 10° NNE
Cosmos 44 3.6 16:55:20 10° SSW 17:00:37 55° ESE 17:04:08 20° NE
Cosmos 1980 Rocket 4.2 16:58:10 10° WSW 17:02:53 26° NW 17:07:39 10° N
CZ-4C R/B 2.9 16:59:39 10° N 17:03:01 80° WNW 17:06:15 10° SSW
Cosmos 1605 Rocket 3.9 16:58:02 10° S 17:04:18 79° E 17:10:41 10° N
Iridium 4 Rocket 3.9 17:00:45 10° N 17:05:22 61° W 17:10:24 10° SSW
Cosmos 614 Rocket 3.8 17:01:11 10° NNW 17:06:17 76° ENE 17:11:23 10° SSE
CZ-2C R/B 2.8 17:00:51 10° NNE 17:06:29 81° WNW 17:11:57 10° SSW
SKYMED 2 4.2 17:03:28 10° N 17:07:44 57° WNW 17:11:59 10° SSW
Cosmos 839 Rocket 4.3 17:00:21 10° NW 17:07:58 82° WSW 17:14:18 10° SSE
IRS-1C Rocket 4.2 17:04:19 10° SE 17:09:20 54° ENE 17:14:29 10° N
YAOGAN 1 2.4 17:07:43 10° SSE 17:12:02 78° ENE 17:16:22 10° N
Cosmos 1447 Rocket 4.3 17:07:12 10° N 17:13:22 72° E 17:19:29 10° SSE
H-2A R/B 2.1 17:13:53 44° ENE 17:14:26 47° E 17:18:29 10° S
CSL-04 Rocket 4.0 17:14:21 32° ESE 17:16:17 44° ENE 17:21:32 10° N
Cosmos 1892 2.5 17:12:35 10° N 17:16:22 77° E 17:18:14 28° SSE
Cosmos 1153 Rocket 4.4 17:17:39 10° S 17:24:00 71° E 17:30:24 10° NNE
Cosmos 304 Rocket 4.3 17:21:04 10° SW 17:25:46 59° WNW 17:30:33 10° NNE
USA 215 4.1 17:21:07 17° NE 17:25:48 44° NNW 17:31:55 10° W
Cosmos 1844 Rocket 2.6 17:24:23 10° NNW 17:30:00 87° WSW 17:33:26 24° SSE
Cosmos 2237 4.4 17:26:43 10° SSW 17:32:26 75° WNW 17:38:12 10° NNE
USA 229 DEB 3.5 17:27:48 10° SW 17:34:12 86° NW 17:39:11 20° NE
USA 229 3.5 17:27:55 10° SW 17:34:19 86° NW 17:39:14 20° NE
Cosmos 1408 2.7 17:30:45 10° NNW 17:34:19 69° W 17:34:31 67° WSW
Lacrosse 4 Rocket 2.8 17:30:59 10° NW 17:35:02 40° WSW 17:38:32 14° S
Meteor 2-10 Rocket 4.0 17:30:17 10° SSW 17:35:47 65° WNW 17:41:07 10° N
Okean O Rocket 3.9 17:36:22 10° SSW 17:39:56 25° W 17:43:32 10° NW
H-2A R/B 4.4 17:36:59 10° SSW 17:41:23 25° W 17:45:51 10° NW
IRS-P2 Rocket 4.4 17:40:57 54° SE 17:42:05 73° ENE 17:47:18 10° N
BREEZE-M DEB (TANK) 4.3 17:32:08 10° W 17:43:41 63° N 17:44:35 52° NE
DMSP B5D2-2 4.2 17:44:43 10° N 17:49:59 76° WNW 17:55:11 10° SSW
X-37B 3.4 17:49:44 10° WSW 17:50:32 14° WSW 17:50:32 14° WSW
Cosmos 2346 Rocket 4.4 17:47:07 10° N 17:53:22 65° E 17:53:51 63° ESE
Cosmos 2278 Rocket 3.5 17:49:22 10° N 17:52:43 25° NNE 17:52:43 25° NNE
SL-8 R/B 3.9 17:51:34 10° WNW 17:56:02 63° NNW 17:56:02 63° NNW
NOSS 3-1 (A) 3.7 17:51:28 10° SW 17:56:46 60° NW 17:59:58 28° NNE
Cosmos 2333 4.0 17:51:22 10° SSW 17:56:59 80° ESE 17:57:14 77° E
ATLAS 5 CENTAUR R/B 4.2 17:55:01 10° NW 17:57:12 14° NNW 17:59:14 11° N
Meteor 2-11 Rocket 4.4 17:53:07 10° S 17:59:16 81° W 18:05:27 10° N
SL-16 R/B 3.9 17:55:50 10° WSW 18:00:49 31° NW 18:05:50 10° N
Cosmos 1825 4.2 17:58:25 10° NNW 17:59:51 22° NNW 17:59:51 22° NNW
Okean-O 3.1 18:02:47 56° WSW 18:02:59 57° W 18:07:22 10° NNW
CZ-4 R/B 3.4 18:02:13 10° SSW 18:05:39 27° W 18:09:11 10° NW
BREEZE-M R/B 3.3 18:06:06 10° WNW 18:09:11 58° SW 18:09:11 58° SW
CENTAUR R/B 4.0 18:04:58 10° NNW 18:11:51 33° NNE 18:12:34 32° NE
Cosmos 2322 Rocket 3.8 18:07:59 10° WSW 18:12:58 32° NW 18:17:59 10° N
Cosmos 2219 Rocket 3.6 18:13:26 10° SSW 18:15:45 26° SSW 18:15:45 26° SSW
Cosmos 407 Rocket 4.0 18:14:53 10° NNW 18:20:05 58° WSW 18:20:05 58° WSW
Cosmos 1140 Rocket 4.0 18:15:52 10° NNW 18:20:33 57° W 18:20:33 57° W
Cosmos 2360 Rocket 3.3 18:17:05 10° SW 18:22:24 42° NW 18:26:04 19° N
Cosmos 1459 Rocket 4.1 18:17:50 10° SSW 18:24:02 73° W 18:30:10 10° N
Cosmos 2100 Rocket 4.3 18:20:39 10° SSW 18:26:54 64° WNW 18:33:15 10° N
Cosmos 2333 Rocket 2.9 18:23:31 10° SW 18:27:35 47° SW 18:27:35 47° SW
USA 215 4.4 19:08:28 33° N 19:08:28 33° N 19:13:39 10° WNW
CENTAUR R/B 4.3 19:55:34 10° NW 19:59:45 36° NW 19:59:45 36° NW
